FW2834 Weather Reports


Display with metric or nautical units.
time (UTC)temp
F
wind
direction
speed
MPH
gust
MPH
rain 1hr
in
rain 24hr
in
rain mn
in
humidity
%
barometer
mb
20260905115037 69 138 0.0 2.0 0.00 0.01 0.00 74 1013.3
20260905114546 69 138 0.0 2.0 0.00 0.01 0.00 74 1013.2
20260905114035 69 142 0.0 2.0 0.00 0.01 0.00 74 1013.2
20260905113538 69 153 0.0 4.0 0.00 0.01 0.00 74 1013.3
20260905113036 69 120 0.0 4.0 0.00 0.01 0.00 74 1013.3
20260905112534 69 98 0.0 3.0 0.00 0.01 0.00 74 1013.4
20260905112032 69 97 0.0 3.0 0.00 0.01 0.00 74 1013.5
20260905111602 69 71 0.0 3.0 0.00 0.01 0.00 73 1013.4
20260905111032 69 117 0.0 3.0 0.00 0.01 0.00 73 1013.7
20260905110531 69 219 0.0 4.0 0.00 0.01 0.00 73 1013.6
20260905110032 69 105 0.0 4.0 0.00 0.01 0.00 73 1013.8
20260905105532 70 306 0.0 4.0 0.00 0.01 0.00 74 1013.9
20260905105030 70 309 0.0 7.0 0.00 0.01 0.00 74 1013.7
20260905104530 70 316 2.0 5.0 0.00 0.01 0.00 74 1013.6
20260905104031 70 90 2.0 5.0 0.00 0.01 0.00 75 1013.7
20260905103529 70 265 1.0 9.0 0.00 0.01 0.00 76 1013.7
20260905103034 70 275 3.0 12.0 0.00 0.01 0.00 77 1013.6
20260905102528 70 254 2.0 12.0 0.00 0.01 0.00 79 1013.6
20260905102026 70 133 2.0 5.0 0.00 0.01 0.00 81 1013.3
20260905101527 71 156 1.0 12.0 0.00 0.01 0.00 81 1013.1
20260905101027 71 360 1.0 12.0 0.00 0.01 0.00 81 1013.4
20260905100523 71 317 2.0 6.0 0.00 0.01 0.00 82 1013.2
20260905100022 71 165 0.0 0.0 0.00 0.01 0.00 81 1012.2
20260905095521 71 165 0.0 0.0 0.00 0.01 0.00 81 1011.4
20260905095024 71 165 0.0 0.0 0.00 0.01 0.00 81 1011.5
20260905094521 71 165 0.0 0.0 0.00 0.01 0.00 80 1011.3
20260905094020 71 165 0.0 0.0 0.00 0.01 0.00 80 1011.1
20260905093522 71 165 0.0 0.0 0.00 0.01 0.00 80 1011.2
20260905093123 71 165 0.0 0.0 0.00 0.01 0.00 80 1011.2
20260905092522 71 165 0.0 0.0 0.00 0.01 0.00 80 1011.2
20260905092019 71 165 0.0 0.0 0.00 0.01 0.00 80 1011.2
20260905091518 71 165 0.0 0.0 0.00 0.01 0.00 80 1011.2
20260905091018 71 165 0.0 0.0 0.00 0.01 0.00 80 1011.1
20260905090517 71 165 0.0 0.0 0.00 0.01 0.00 80 1011.1
20260905090018 71 165 0.0 0.0 0.00 0.01 0.00 80 1011.1
20260905085518 71 165 0.0 0.0 0.00 0.01 0.00 80 1011.0
20260905085018 71 165 0.0 0.0 0.00 0.01 0.00 80 1011.1
20260905084516 71 165 0.0 0.0 0.00 0.01 0.00 80 1011.1
20260905084016 71 165 0.0 0.0 0.00 0.01 0.00 80 1011.2
20260905083519 71 165 0.0 0.0 0.00 0.01 0.00 80 1011.2
20260905083015 71 165 0.0 0.0 0.00 0.01 0.00 80 1011.2
20260905082515 71 165 0.0 0.0 0.00 0.01 0.00 80 1011.3
20260905082015 71 165 0.0 0.0 0.00 0.01 0.00 80 1011.3
20260905081514 71 165 0.0 0.0 0.00 0.01 0.00 80 1011.3
20260905081015 71 165 0.0 0.0 0.00 0.01 0.00 80 1011.3
20260905080513 72 165 0.0 0.0 0.00 0.01 0.00 80 1011.2
20260905080022 71 165 0.0 0.0 0.00 0.01 0.00 79 1011.1
20260905075514 72 165 0.0 0.0 0.00 0.01 0.00 79 1011.0
20260905075015 72 165 0.0 0.0 0.00 0.01 0.00 79 1010.9
20260905074513 72 165 0.0 0.0 0.00 0.01 0.00 79 1010.9
20260905074012 72 165 0.0 0.0 0.00 0.01 0.00 79 1010.8
20260905073511 72 165 0.0 0.0 0.00 0.01 0.00 79 1010.7
20260905073011 72 165 0.0 0.0 0.00 0.01 0.00 79 1010.6
20260905072511 72 165 0.0 0.0 0.00 0.01 0.00 79 1010.7
20260905072010 72 165 0.0 0.0 0.00 0.01 0.00 79 1010.6
20260905071511 72 165 0.0 0.0 0.00 0.01 0.00 79 1010.6
20260905071014 72 165 0.0 0.0 0.00 0.01 0.00 79 1010.6
20260905070509 72 165 0.0 0.0 0.00 0.01 0.00 79 1010.5
20260905070022 72 165 0.0 0.0 0.00 0.01 0.00 79 1010.5
20260905065508 72 165 0.0 0.0 0.00 0.01 0.00 79 1010.6
20260905065010 72 165 0.0 0.0 0.00 0.01 0.00 78 1010.7
20260905064518 72 165 0.0 0.0 0.00 0.01 0.00 78 1010.9
20260905064005 72 165 0.0 0.0 0.00 0.01 0.00 78 1011.0
20260905063504 72 165 0.0 0.0 0.00 0.01 0.00 78 1011.2
20260905063004 72 165 0.0 0.0 0.00 0.01 0.00 78 1011.1
20260905062506 72 165 0.0 0.0 0.00 0.01 0.00 78 1011.1
20260905062005 72 165 0.0 0.0 0.00 0.01 0.00 78 1011.3
20260905061502 72 165 0.0 0.0 0.00 0.01 0.00 78 1011.4
20260905061001 72 165 0.0 0.0 0.00 0.01 0.00 78 1011.4
20260905060501 72 165 0.0 0.0 0.00 0.01 0.00 78 1011.5
20260905060001 72 165 0.0 0.0 0.00 0.01 0.00 78 1011.4
20260905055603 72 165 0.0 0.0 0.00 0.01 0.00 78 1011.5
20260905055059 72 165 0.0 0.0 0.00 0.01 0.00 77 1011.6
20260905054601 72 165 0.0 0.0 0.00 0.01 0.00 77 1011.7
20260905054100 72 165 0.0 0.0 0.00 0.01 0.00 77 1011.8
20260905053557 72 165 0.0 0.0 0.00 0.01 0.00 77 1011.9
20260905053100 72 165 0.0 0.0 0.00 0.01 0.00 77 1011.9
20260905052556 72 165 0.0 0.0 0.00 0.01 0.00 77 1011.9
20260905052055 72 165 0.0 0.0 0.00 0.01 0.00 77 1012.0
20260905051555 73 165 0.0 0.0 0.00 0.01 0.00 77 1012.1
20260905051054 73 165 0.0 0.0 0.00 0.01 0.00 77 1012.0
20260905050555 73 165 0.0 0.0 0.00 0.01 0.00 77 1012.1
20260905050057 73 165 0.0 0.0 0.00 0.01 0.00 77 1012.3
20260905045552 73 165 0.0 0.0 0.00 0.01 0.00 77 1012.3
20260905045052 73 165 0.0 0.0 0.00 0.01 0.00 77 1012.2
20260905044551 73 165 0.0 0.0 0.00 0.01 0.00 77 1012.2
20260905044051 73 165 0.0 1.0 0.00 0.01 0.00 77 1012.3
20260905043551 73 165 0.0 1.0 0.00 0.01 0.00 77 1012.2
20260905043051 73 165 0.0 0.0 0.00 0.01 0.00 76 1012.2
20260905042549 73 165 0.0 0.0 0.00 0.01 0.00 76 1012.2
20260905042049 73 165 0.0 0.0 0.00 0.01 0.00 76 1012.2
20260905041556 73 165 0.0 0.0 0.00 0.01 0.00 76 1012.2
20260905041048 73 165 0.0 0.0 0.00 0.01 0.00 76 1012.3
20260905040547 73 165 0.0 0.0 0.00 0.01 0.00 76 1012.2
20260905040046 73 165 0.0 0.0 0.00 0.01 0.00 76 1012.1
20260905035548 73 165 0.0 0.0 0.00 0.01 0.01 75 1012.2
20260905035046 73 165 0.0 0.0 0.00 0.01 0.01 75 1012.2
20260905034546 73 165 0.0 0.0 0.00 0.01 0.01 75 1012.3
20260905034050 73 165 0.0 0.0 0.00 0.01 0.01 75 1012.4
20260905033545 73 165 0.0 0.0 0.00 0.01 0.01 75 1012.3
20260905033047 74 165 0.0 0.0 0.00 0.01 0.01 75 1012.3
20260905032546 74 165 0.0 0.0 0.00 0.01 0.01 75 1012.3
20260905032045 74 165 0.0 0.0 0.00 0.01 0.01 75 1012.4
20260905031546 74 165 0.0 0.0 0.00 0.01 0.01 75 1012.5
20260905031044 74 165 0.0 0.0 0.00 0.01 0.01 75 1012.3
20260905030544 74 165 0.0 0.0 0.00 0.01 0.01 75 1012.3
20260905030044 74 165 0.0 0.0 0.00 0.01 0.01 74 1012.4
20260905025545 74 165 0.0 0.0 0.00 0.01 0.01 74 1012.3
20260905025044 74 165 0.0 0.0 0.00 0.01 0.01 74 1012.1
20260905024549 74 165 0.0 0.0 0.00 0.01 0.01 74 1012.2
20260905024044 74 165 0.0 0.0 0.00 0.01 0.01 74 1012.2
20260905023543 74 165 0.0 0.0 0.00 0.01 0.01 74 1012.3
20260905023044 74 165 0.0 0.0 0.00 0.01 0.01 74 1012.3
20260905022543 74 165 0.0 0.0 0.00 0.01 0.01 74 1012.3
20260905022043 74 165 0.0 0.0 0.00 0.01 0.01 74 1012.3
20260905021544 74 165 0.0 0.0 0.00 0.01 0.01 74 1012.4
20260905021042 74 165 0.0 0.0 0.00 0.01 0.01 74 1012.3
20260905020542 75 165 0.0 0.0 0.00 0.01 0.01 74 1012.3
20260905020042 75 165 0.0 0.0 0.00 0.01 0.01 74 1012.3
20260905015543 75 165 0.0 0.0 0.00 0.01 0.01 73 1012.1
20260905015045 75 165 0.0 0.0 0.00 0.01 0.01 73 1012.2
20260905014552 75 165 0.0 0.0 0.00 0.01 0.01 73 1012.1
20260905014041 75 165 0.0 1.0 0.00 0.01 0.01 73 1012.0
20260905013540 75 165 0.0 1.0 0.00 0.01 0.01 73 1012.0
20260905013042 75 165 0.0 0.0 0.00 0.01 0.01 73 1011.9
20260905012543 75 165 0.0 0.0 0.00 0.01 0.01 73 1011.9
20260905012041 76 165 0.0 0.0 0.00 0.01 0.01 73 1011.8
20260905011540 76 165 0.0 0.0 0.00 0.01 0.01 73 1011.8
20260905011039 76 165 0.0 0.0 0.00 0.01 0.01 72 1011.8
20260905010542 76 165 0.0 0.0 0.00 0.01 0.01 72 1011.8
20260905010040 76 165 0.0 0.0 0.00 0.01 0.01 72 1011.7
20260905005540 76 165 0.0 0.0 0.00 0.01 0.01 72 1011.8
20260905005038 76 165 0.0 0.0 0.00 0.01 0.01 72 1011.7
20260905004539 76 165 0.0 0.0 0.00 0.01 0.01 71 1011.7
20260905004038 76 165 0.0 0.0 0.00 0.01 0.01 71 1011.7
20260905003539 77 165 0.0 0.0 0.00 0.01 0.01 71 1011.7
20260905003039 77 165 0.0 0.0 0.00 0.01 0.01 71 1011.6
20260905002538 77 165 0.0 0.0 0.00 0.01 0.01 71 1011.7
20260905002038 77 165 0.0 0.0 0.00 0.01 0.01 71 1011.6
20260905001538 77 165 0.0 0.0 0.00 0.01 0.01 70 1011.5
20260905001037 77 165 0.0 0.0 0.00 0.01 0.01 70 1011.6
20260905000541 77 165 0.0 0.0 0.00 0.01 0.01 70 1011.4
20260905000038 77 165 0.0 0.0 0.00 0.01 0.01 70 1011.4
20260904235537 77 165 0.0 0.0 0.00 0.01 0.01 70 1011.6
20260904235038 78 165 0.0 0.0 0.00 0.01 0.01 70 1011.6
20260904234540 78 165 0.0 0.0 0.00 0.01 0.01 69 1011.7
20260904234040 78 165 0.0 0.0 0.00 0.01 0.01 69 1011.8
20260904233539 78 165 0.0 0.0 0.00 0.01 0.01 69 1011.7
20260904233037 78 165 0.0 0.0 0.00 0.01 0.01 69 1011.5
20260904232537 78 165 0.0 0.0 0.00 0.01 0.01 69 1011.4
20260904232037 78 165 0.0 0.0 0.00 0.01 0.01 69 1011.5
20260904231537 78 165 0.0 0.0 0.00 0.01 0.01 69 1011.4
20260904231036 78 165 0.0 0.0 0.00 0.01 0.01 69 1011.4
20260904230536 78 165 0.0 0.0 0.00 0.01 0.01 69 1011.5
20260904230036 79 165 0.0 0.0 0.00 0.01 0.01 69 1011.4
20260904225535 79 165 0.0 0.0 0.00 0.01 0.01 69 1011.5
20260904225034 79 165 0.0 0.0 0.00 0.01 0.01 68 1011.5
20260904224535 79 165 0.0 0.0 0.01 0.01 0.01 68 1011.5
20260904224035 79 165 0.0 0.0 0.01 0.01 0.01 67 1011.5
20260904223535 79 165 0.0 0.0 0.01 0.01 0.01 67 1011.4
20260904223043 79 165 0.0 0.0 0.01 0.01 0.01 66 1011.5
20260904222633 80 165 0.0 0.0 0.01 0.01 0.01 66 1011.6
20260904222033 80 165 0.0 0.0 0.01 0.01 0.01 67 1012.0
20260904221544 81 165 0.0 0.0 0.01 0.01 0.01 66 1012.1
20260904221033 81 165 0.0 0.0 0.01 0.01 0.01 66 1012.0
20260904220532 82 165 0.0 0.0 0.01 0.01 0.01 64 1012.5
20260904220033 82 165 0.0 0.0 0.01 0.01 0.01 63 1012.7
20260904215531 83 165 0.0 0.0 0.01 0.01 0.01 61 1012.9
20260904215031 83 165 0.0 0.0 0.00 0.00 0.00 60 1012.3
20260904214536 83 261 0.0 0.0 0.00 0.00 0.00 58 1013.1
20260904214031 84 265 0.0 0.0 0.00 0.00 0.00 57 1013.9
20260904213531 85 265 0.0 0.0 0.00 0.00 0.00 56 1013.5
20260904213031 85 279 0.0 0.0 0.00 0.00 0.00 55 1013.8
20260904212532 86 279 0.0 0.0 0.00 0.00 0.00 54 1013.1
20260904212030 87 279 0.0 0.0 0.00 0.00 0.00 53 1013.2
20260904211535 87 282 0.0 0.0 0.00 0.00 0.00 51 1013.4
20260904211030 88 280 0.0 0.0 0.00 0.00 0.00 49 1012.9
20260904210531 89 55 0.0 0.0 0.00 0.00 0.00 48 1012.6
20260904210032 90 221 0.0 0.0 0.00 0.00 0.00 46 1012.5
20260904205530 92 336 0.0 0.0 0.00 0.00 0.00 45 1012.5
20260904205033 93 309 0.0 0.0 0.00 0.00 0.00 43 1012.8
20260904204530 94 315 0.0 0.0 0.00 0.00 0.00 43 1012.5
20260904204030 95 137 0.0 0.0 0.00 0.00 0.00 43 1012.1
20260904203530 95 138 0.0 0.0 0.00 0.00 0.00 45 1011.8
20260904203033 95 326 0.0 0.0 0.00 0.00 0.00 46 1011.7
20260904202531 95 326 0.0 0.0 0.00 0.00 0.00 46 1011.9
20260904202032 95 326 0.0 0.0 0.00 0.00 0.00 44 1011.9
20260904201531 95 323 0.0 0.0 0.00 0.00 0.00 44 1011.9
20260904201028 95 323 0.0 0.0 0.00 0.00 0.00 43 1012.0
20260904200527 95 323 0.0 0.0 0.00 0.00 0.00 42 1011.9
20260904200025 95 313 0.0 0.0 0.00 0.00 0.00 42 1012.0
20260904195627 95 313 0.0 0.0 0.00 0.00 0.00 43 1012.1
20260904195023 95 70 0.0 0.0 0.00 0.00 0.00 44 1012.0
20260904194558 96 331 0.0 0.0 0.00 0.00 0.00 44 1012.1
20260904194024 96 329 0.0 0.0 0.00 0.00 0.00 45 1012.1
20260904193524 96 329 0.0 0.0 0.00 0.00 0.00 43 1012.1
20260904193035 96 329 0.0 0.0 0.00 0.00 0.00 43 1012.1
20260904192522 96 327 0.0 0.0 0.00 0.00 0.00 45 1012.0
20260904192021 96 327 0.0 0.0 0.00 0.00 0.00 42 1012.2
20260904191521 96 327 0.0 0.0 0.00 0.00 0.00 44 1012.2
20260904191024 96 331 0.0 0.0 0.00 0.00 0.00 43 1012.2
20260904190519 96 268 0.0 0.0 0.00 0.00 0.00 46 1012.3
20260904190017 96 323 0.0 0.0 0.00 0.00 0.00 46 1012.3
20260904185516 95 277 0.0 0.0 0.00 0.00 0.00 47 1012.5
20260904185016 95 276 0.0 0.0 0.00 0.00 0.00 46 1012.6
20260904184515 95 170 0.0 0.0 0.00 0.00 0.00 45 1012.7
20260904184014 95 305 0.0 0.0 0.00 0.00 0.00 46 1012.8
20260904183514 94 272 0.0 0.0 0.00 0.00 0.00 44 1012.9
20260904183014 94 313 0.0 0.0 0.00 0.00 0.00 46 1012.8
20260904182512 94 317 0.0 0.0 0.00 0.00 0.00 47 1012.9
20260904182012 94 222 0.0 0.0 0.00 0.00 0.00 46 1013.0
20260904181513 94 326 0.0 0.0 0.00 0.00 0.00 44 1013.0
20260904181012 94 325 0.0 0.0 0.00 0.00 0.00 45 1013.2
20260904180512 94 325 0.0 0.0 0.00 0.00 0.00 44 1013.2
20260904180010 94 311 0.0 0.0 0.00 0.00 0.00 45 1013.3
20260904175509 94 221 0.0 0.0 0.00 0.00 0.00 49 1013.4
20260904175009 94 145 0.0 0.0 0.00 0.00 0.00 47 1013.5
20260904174510 94 179 0.0 0.0 0.00 0.00 0.00 49 1013.6
20260904174009 94 317 0.0 0.0 0.00 0.00 0.00 48 1013.7
20260904173508 94 321 0.0 0.0 0.00 0.00 0.00 49 1013.7
20260904173011 94 321 0.0 0.0 0.00 0.00 0.00 46 1013.9
20260904172508 94 24 0.0 0.0 0.00 0.00 0.00 49 1013.8
20260904172008 94 15 0.0 0.0 0.00 0.00 0.00 50 1013.8
20260904171507 94 319 0.0 0.0 0.00 0.00 0.00 49 1013.9
20260904171007 94 321 0.0 0.0 0.00 0.00 0.00 47 1014.0
20260904170507 94 321 0.0 0.0 0.00 0.00 0.00 46 1014.0
20260904170007 94 13 0.0 0.0 0.00 0.00 0.00 47 1014.1
20260904165507 94 55 0.0 0.0 0.00 0.00 0.00 47 1014.0
20260904165007 94 24 0.0 0.0 0.00 0.00 0.00 47 1013.9
20260904164509 95 305 0.0 0.0 0.00 0.00 0.00 47 1014.0
20260904164005 95 307 0.0 0.0 0.00 0.00 0.00 46 1014.0
20260904163504 95 285 0.0 0.0 0.00 0.00 0.00 50 1014.0
20260904163003 94 285 0.0 0.0 0.00 0.00 0.00 50 1014.0
20260904162502 94 270 0.0 0.0 0.00 0.00 0.00 49 1014.0
20260904162005 94 336 0.0 0.0 0.00 0.00 0.00 49 1014.1
20260904161501 94 135 0.0 0.0 0.00 0.00 0.00 49 1014.0
20260904161100 94 134 0.0 0.0 0.00 0.00 0.00 48 1014.2
20260904160558 94 323 0.0 0.0 0.00 0.00 0.00 48 1014.2
20260904160058 94 10 0.0 0.0 0.00 0.00 0.00 49 1014.1
20260904155557 94 27 0.0 0.0 0.00 0.00 0.00 49 1014.2
20260904155056 94 30 0.0 0.0 0.00 0.00 0.00 52 1014.1
20260904154611 94 286 0.0 0.0 0.00 0.00 0.00 54 1014.0
20260904154053 93 286 0.0 0.0 0.00 0.00 0.00 52 1014.1
20260904153552 93 286 0.0 0.0 0.00 0.00 0.00 55 1014.1
20260904153053 93 286 0.0 0.0 0.00 0.00 0.00 56 1014.1
20260904152550 92 334 0.0 0.0 0.00 0.00 0.00 57 1014.1
20260904152047 92 334 0.0 0.0 0.00 0.00 0.00 57 1014.0
20260904151548 92 333 0.0 0.0 0.00 0.00 0.00 57 1013.9
20260904151045 91 244 0.0 0.0 0.00 0.00 0.00 60 1014.0
20260904150548 91 255 0.0 0.0 0.00 0.00 0.00 61 1014.0
20260904150042 90 223 0.0 0.0 0.00 0.00 0.00 61 1014.0
20260904145541 89 224 0.0 0.0 0.00 0.00 0.00 62 1014.0
20260904145040 89 223 0.0 0.0 0.00 0.00 0.00 64 1013.8
20260904144538 88 223 0.0 0.0 0.00 0.00 0.00 65 1013.9
20260904144038 87 269 0.0 0.0 0.00 0.00 0.00 66 1013.9
20260904143534 86 271 0.0 0.0 0.00 0.00 0.00 67 1013.9
20260904143033 86 271 0.0 0.0 0.00 0.00 0.00 69 1013.9
20260904142535 85 220 0.0 0.0 0.00 0.00 0.00 72 1014.0
20260904142030 84 220 0.0 0.0 0.00 0.00 0.00 73 1013.9
20260904141538 83 118 0.0 0.0 0.00 0.00 0.00 74 1014.0
20260904141031 82 118 0.0 0.0 0.00 0.00 0.00 76 1014.0
20260904140526 81 118 0.0 0.0 0.00 0.00 0.00 77 1014.0
20260904140025 80 118 0.0 0.0 0.00 0.00 0.00 80 1013.9
20260904135523 80 119 0.0 0.0 0.00 0.00 0.00 86 1013.9
20260904135025 79 119 0.0 0.0 0.00 0.00 0.00 88 1013.9
20260904134521 78 119 0.0 0.0 0.00 0.00 0.00 89 1013.9
20260904134019 78 119 0.0 0.0 0.00 0.00 0.00 89 1013.9
20260904133516 77 119 0.0 0.0 0.00 0.00 0.00 89 1014.1
20260904133017 77 119 0.0 0.0 0.00 0.00 0.00 89 1014.1
20260904132515 77 119 0.0 0.0 0.00 0.00 0.00 89 1014.1
20260904132014 77 113 0.0 0.0 0.00 0.00 0.00 89 1014.0
20260904131514 77 113 0.0 0.0 0.00 0.00 0.00 89 1014.1
20260904131013 77 113 0.0 0.0 0.00 0.00 0.00 89 1014.0
20260904130512 76 113 0.0 0.0 0.00 0.00 0.00 89 1013.9
20260904130012 76 113 0.0 0.0 0.00 0.00 0.00 88 1014.1
20260904125511 75 113 0.0 0.0 0.00 0.00 0.00 88 1014.0
20260904125010 75 113 0.0 0.0 0.00 0.00 0.00 87 1014.1
20260904124510 75 113 0.0 0.0 0.00 0.00 0.00 86 1014.1
20260904124008 75 113 0.0 0.0 0.00 0.00 0.00 85 1014.1
20260904123512 74 113 0.0 0.0 0.00 0.00 0.00 85 1014.1
20260904123007 74 113 0.0 0.0 0.00 0.00 0.00 84 1014.1
20260904122508 74 113 0.0 0.0 0.00 0.00 0.00 83 1013.9
20260904122007 74 113 0.0 0.0 0.00 0.00 0.00 81 1014.0
20260904121503 73 113 0.0 0.0 0.00 0.00 0.00 81 1013.9
20260904121002 73 113 0.0 0.0 0.00 0.00 0.00 81 1013.7
20260904120501 73 113 0.0 0.0 0.00 0.00 0.00 81 1013.8
20260904120100 73 113 0.0 0.0 0.00 0.00 0.00 80 1013.7
20260904115559 73 113 0.0 0.0 0.00 0.00 0.00 80 1013.6